Weather in Madikeri

India     12°25′20″N   75°44′27″E
temp.,
°C
wind,
m/s
gust,
m/s
humid.,
%
clouds,
%
prec.,
mm/h
press.,
hPa
HPBL,
m
16 june, wed
wed1623:30+19wsw31090100 2.3 1010595
02:30+19wsw2992100 0.9 1009601
05:30+19wsw31092100 1.6 1009707
08:30+20wsw3990100 1.3 1011756
11:30+21w31088100 4.0 1011967
14:30+22w41088100 4.2 10101061
17:30+21w41191100 7.0 10101035
20:30+19wsw399494 0.9 1012566
17 june, thu
thu1723:30+19wsw2894100 1.1 1012464
02:30+19wsw289467 0.3 1010484
05:30+18wsw279496 0.8 1011313
08:30+22w3108264 0.6 10121080
11:30+24w4107196 2.4 10121186
14:30+23w497487 2.3 10111118
17:30+22w398291 4.1 1011916
20:30+19wsw149382 0.6 1013212
18 june, fri
fri1823:30+19wsw169581 0.6 1013282
02:30+18wsw269791 0.2 1011285
05:30+18wsw259794 0.3 1011208
08:30+22wsw378068 0.3 1013749
11:30+24w4871100 1.1 10121099
14:30+24w4873100 1.1 10111053
17:30+21w3783100 2.1 1012703
20:30+19wsw1494100 0.2 1014202
19 june, sat
sat1923:30+19sw1396100 0.3 1013157
02:30+18sw1496100 0.1 1012164
05:30+18wsw1397100 0.3 1012109
08:30+22wsw3781100 0.3 1013738
11:30+24w487299 1.3 10131089
14:30+23w488299 2.5 1011897
17:30+21w379091 4.5 1012603
20:30+19wsw269599 0.9 1013391
20 june, sun
sun2023:30+19sw139783 1.3 1013153
02:30+18sw269797 0.6 1011280
05:30+18sw1498100 1.2 1012133
08:30+21wsw278676 0.8 1013629
11:30+23w487893 2.9 1013923
14:30+23w378470 2.9 1012824
17:30+21w368981 6.2 1012532
20:30+19w149838 0.8 1014216